Year,Month,Day,Hour,Minute,Value (Times are PST for temperature in C)
2011,11,16,00,00,0.80
2011,11,16,00,01,0.80
2011,11,16,00,02,0.80
2011,11,16,00,03,0.90
2011,11,16,00,04,0.90
2011,11,16,00,05,0.90
2011,11,16,00,06,0.90
2011,11,16,00,07,0.90
2011,11,16,00,08,0.90
2011,11,16,00,09,0.90
2011,11,16,00,10,0.90
2011,11,16,00,11,0.90
2011,11,16,00,12,0.90
2011,11,16,00,13,0.90
2011,11,16,00,14,1.00
2011,11,16,00,15,1.10
2011,11,16,00,16,1.20
2011,11,16,00,17,1.20
2011,11,16,00,18,1.30
2011,11,16,00,19,1.40
2011,11,16,00,20,1.40
2011,11,16,00,21,1.50
2011,11,16,00,22,1.50
2011,11,16,00,23,1.50
2011,11,16,00,24,1.50
2011,11,16,00,25,1.60
2011,11,16,00,26,1.60
2011,11,16,00,27,1.60
2011,11,16,00,28,1.60
2011,11,16,00,29,1.60
2011,11,16,00,30,1.60
2011,11,16,00,31,1.60
2011,11,16,00,32,1.60
2011,11,16,00,33,1.60
2011,11,16,00,34,1.60
2011,11,16,00,35,1.60
2011,11,16,00,36,1.70
2011,11,16,00,37,1.70
2011,11,16,00,38,1.70
2011,11,16,00,39,1.70
2011,11,16,00,40,1.70
2011,11,16,00,41,1.70
2011,11,16,00,42,1.70
2011,11,16,00,43,1.80
2011,11,16,00,44,1.80
2011,11,16,00,45,1.80
2011,11,16,00,46,1.80
2011,11,16,00,47,1.80
2011,11,16,00,48,1.80
2011,11,16,00,49,1.80
2011,11,16,00,50,1.80
2011,11,16,00,51,1.80
2011,11,16,00,52,1.80
2011,11,16,00,53,1.80
2011,11,16,00,54,1.80
2011,11,16,00,55,1.80
2011,11,16,00,56,1.80
2011,11,16,00,57,1.80
2011,11,16,00,58,1.80
2011,11,16,00,59,1.80
2011,11,16,01,00,1.80
2011,11,16,01,01,1.80
2011,11,16,01,02,1.80
2011,11,16,01,03,1.80
2011,11,16,01,04,1.80
2011,11,16,01,05,1.80
2011,11,16,01,06,1.80
2011,11,16,01,07,1.80
2011,11,16,01,08,1.70
2011,11,16,01,09,1.70
2011,11,16,01,10,1.70
2011,11,16,01,11,1.70
2011,11,16,01,12,1.70
2011,11,16,01,13,1.70
2011,11,16,01,14,1.70
2011,11,16,01,15,1.70
2011,11,16,01,16,1.70
2011,11,16,01,17,1.60
2011,11,16,01,18,1.60
2011,11,16,01,19,1.60
2011,11,16,01,20,1.60
2011,11,16,01,21,1.60
2011,11,16,01,22,1.60
2011,11,16,01,23,1.60
2011,11,16,01,24,1.60
2011,11,16,01,25,1.60
2011,11,16,01,26,1.60
2011,11,16,01,27,1.60
2011,11,16,01,28,1.60
2011,11,16,01,29,1.60
2011,11,16,01,30,1.70
2011,11,16,01,31,1.70
2011,11,16,01,32,1.70
2011,11,16,01,33,1.70
2011,11,16,01,34,1.70
2011,11,16,01,35,1.70
2011,11,16,01,36,1.70
2011,11,16,01,37,1.70
2011,11,16,01,38,1.80
2011,11,16,01,39,1.80
2011,11,16,01,40,1.80
2011,11,16,01,41,1.80
2011,11,16,01,42,1.80
2011,11,16,01,43,1.80
2011,11,16,01,44,1.80
2011,11,16,01,45,1.80
2011,11,16,01,46,1.80
2011,11,16,01,47,1.80
2011,11,16,01,48,1.80
2011,11,16,01,49,1.80
2011,11,16,01,50,1.80
2011,11,16,01,51,1.80
2011,11,16,01,52,1.80
2011,11,16,01,53,1.80
2011,11,16,01,54,1.80
2011,11,16,01,55,1.80
2011,11,16,01,56,1.80
2011,11,16,01,57,1.80
2011,11,16,01,58,1.80
2011,11,16,01,59,1.80
2011,11,16,02,00,1.80
2011,11,16,02,01,1.80
2011,11,16,02,02,1.80
2011,11,16,02,03,1.90
2011,11,16,02,04,1.90
2011,11,16,02,05,1.80
2011,11,16,02,06,1.90
2011,11,16,02,07,1.90
2011,11,16,02,08,1.90
2011,11,16,02,09,1.90
2011,11,16,02,10,1.90
2011,11,16,02,11,1.90
2011,11,16,02,12,1.90
2011,11,16,02,13,1.90
2011,11,16,02,14,1.90
2011,11,16,02,15,1.90
2011,11,16,02,16,1.90
2011,11,16,02,17,1.90
2011,11,16,02,18,1.90
2011,11,16,02,19,1.80
2011,11,16,02,20,1.80
2011,11,16,02,21,1.80
2011,11,16,02,22,1.80
2011,11,16,02,23,1.80
2011,11,16,02,24,1.80
2011,11,16,02,25,1.80
2011,11,16,02,26,1.80
2011,11,16,02,27,1.80
2011,11,16,02,28,1.80
2011,11,16,02,29,1.90
2011,11,16,02,30,1.90
2011,11,16,02,31,1.90
2011,11,16,02,32,1.90
2011,11,16,02,33,1.90
2011,11,16,02,34,1.90
2011,11,16,02,35,1.90
2011,11,16,02,36,1.90
2011,11,16,02,37,1.90
2011,11,16,02,38,1.90
2011,11,16,02,39,1.90
2011,11,16,02,40,1.90
2011,11,16,02,41,1.90
2011,11,16,02,42,1.90
2011,11,16,02,43,1.90
2011,11,16,02,44,1.90
2011,11,16,02,45,1.90
2011,11,16,02,46,1.90
2011,11,16,02,47,1.90
2011,11,16,02,48,1.90
2011,11,16,02,49,1.90
2011,11,16,02,50,1.90
2011,11,16,02,51,1.90
2011,11,16,02,52,1.90
2011,11,16,02,53,1.90
2011,11,16,02,54,1.90
2011,11,16,02,55,1.90
2011,11,16,02,56,1.90
2011,11,16,02,57,1.90
2011,11,16,02,58,1.90
2011,11,16,02,59,1.90
2011,11,16,03,00,1.90
2011,11,16,03,01,1.90
2011,11,16,03,02,1.90
2011,11,16,03,06,1.90
2011,11,16,03,07,1.90
2011,11,16,03,08,1.90
2011,11,16,03,09,1.90
2011,11,16,03,10,1.90
2011,11,16,03,11,1.90
2011,11,16,03,12,1.90
2011,11,16,03,13,1.90
2011,11,16,03,14,1.90
2011,11,16,03,15,1.90
2011,11,16,03,16,1.90
2011,11,16,03,17,1.90
2011,11,16,03,18,1.90
2011,11,16,03,19,1.90
2011,11,16,03,20,1.90
2011,11,16,03,21,1.90
2011,11,16,03,22,1.90
2011,11,16,03,23,1.90
2011,11,16,03,24,1.90
2011,11,16,03,25,1.90
2011,11,16,03,26,1.90
2011,11,16,03,27,1.90
2011,11,16,03,28,1.90
2011,11,16,03,29,1.90
2011,11,16,03,30,1.90
2011,11,16,03,31,1.90
2011,11,16,03,32,1.90
2011,11,16,03,33,1.90
2011,11,16,03,34,1.90
2011,11,16,03,35,1.90
2011,11,16,03,36,1.90
2011,11,16,03,37,1.90
2011,11,16,03,38,1.90
2011,11,16,03,39,1.90
2011,11,16,03,40,1.90
2011,11,16,03,41,1.90
2011,11,16,03,42,1.90
2011,11,16,03,43,1.90
2011,11,16,03,44,1.90
2011,11,16,03,45,1.90
2011,11,16,03,46,1.80
2011,11,16,03,47,1.80
2011,11,16,03,48,1.80
2011,11,16,03,49,1.80
2011,11,16,03,50,1.80
2011,11,16,03,51,1.80
2011,11,16,03,52,1.80
2011,11,16,03,53,1.90
2011,11,16,03,54,1.90
2011,11,16,03,55,1.90
2011,11,16,03,56,1.90
2011,11,16,03,57,1.90
2011,11,16,03,58,1.90
2011,11,16,03,59,1.90
2011,11,16,04,00,1.90
2011,11,16,04,01,1.90
2011,11,16,04,02,1.90
2011,11,16,04,03,1.90
2011,11,16,04,04,1.90
2011,11,16,04,05,1.90
2011,11,16,04,06,1.90
2011,11,16,04,07,1.90
2011,11,16,04,08,1.90
2011,11,16,04,09,1.90
2011,11,16,04,10,1.90
2011,11,16,04,11,2.00
2011,11,16,04,12,2.00
2011,11,16,04,13,2.00
2011,11,16,04,14,2.00
2011,11,16,04,15,2.00
2011,11,16,04,16,2.10
2011,11,16,04,17,2.10
2011,11,16,04,18,2.10
2011,11,16,04,19,2.10
2011,11,16,04,20,2.10
2011,11,16,04,21,2.10
2011,11,16,04,22,2.00
2011,11,16,04,23,2.00
2011,11,16,04,24,2.00
2011,11,16,04,25,2.00
2011,11,16,04,26,2.00
2011,11,16,04,27,2.00
2011,11,16,04,28,2.00
2011,11,16,04,29,2.00
2011,11,16,04,30,2.00
2011,11,16,04,31,2.00
2011,11,16,04,32,2.00
2011,11,16,04,33,2.00
2011,11,16,04,34,2.00
2011,11,16,04,35,2.00
2011,11,16,04,36,2.00
2011,11,16,04,37,2.00
2011,11,16,04,38,2.00
2011,11,16,04,39,2.00
2011,11,16,04,40,2.00
2011,11,16,04,41,2.00
2011,11,16,04,42,2.00
2011,11,16,04,43,2.00
2011,11,16,04,44,2.00
2011,11,16,04,45,2.10
2011,11,16,04,46,2.10
2011,11,16,04,47,2.10
2011,11,16,04,48,2.10
2011,11,16,04,49,2.10
2011,11,16,04,50,2.10
2011,11,16,04,51,2.10
2011,11,16,04,52,2.10
2011,11,16,04,53,2.10
2011,11,16,04,54,2.10
2011,11,16,04,55,2.20
2011,11,16,04,56,2.20
2011,11,16,04,57,2.20
2011,11,16,04,58,2.20
2011,11,16,04,59,2.30
2011,11,16,05,00,2.30
2011,11,16,05,01,2.30
2011,11,16,05,02,2.30
2011,11,16,05,03,2.30
2011,11,16,05,04,2.30
2011,11,16,05,05,2.30
2011,11,16,05,06,2.30
2011,11,16,05,07,2.30
2011,11,16,05,08,2.30
2011,11,16,05,09,2.30
2011,11,16,05,10,2.30
2011,11,16,05,11,2.30
2011,11,16,05,12,2.30
2011,11,16,05,13,2.30
2011,11,16,05,14,2.30
2011,11,16,05,15,2.30
2011,11,16,05,16,2.40
2011,11,16,05,17,2.40
2011,11,16,05,18,2.40
2011,11,16,05,19,2.40
2011,11,16,05,20,2.40
2011,11,16,05,21,2.40
2011,11,16,05,22,2.50
2011,11,16,05,23,2.50
2011,11,16,05,24,2.50
2011,11,16,05,25,2.50
2011,11,16,05,26,2.60
2011,11,16,05,27,2.60
2011,11,16,05,28,2.60
2011,11,16,05,29,2.60
2011,11,16,05,30,2.60
2011,11,16,05,31,2.60
2011,11,16,05,32,2.70
2011,11,16,05,33,2.70
2011,11,16,05,34,2.70
2011,11,16,05,35,2.70
2011,11,16,05,36,2.70
2011,11,16,05,37,2.70
2011,11,16,05,38,2.70
2011,11,16,05,39,2.70
2011,11,16,05,40,2.70
2011,11,16,05,41,2.70
2011,11,16,05,42,2.70
2011,11,16,05,43,2.70
2011,11,16,05,44,2.70
2011,11,16,05,45,2.70
2011,11,16,05,46,2.80
2011,11,16,05,47,2.80
2011,11,16,05,48,2.80
2011,11,16,05,49,2.80
2011,11,16,05,50,2.80
2011,11,16,05,51,2.80
2011,11,16,05,52,2.80
2011,11,16,05,53,2.80
2011,11,16,05,54,2.80
2011,11,16,05,55,2.80
2011,11,16,05,56,2.80
2011,11,16,05,57,2.80
2011,11,16,05,58,2.80
2011,11,16,05,59,2.80
2011,11,16,06,00,2.80
2011,11,16,06,01,2.80
2011,11,16,06,02,2.80
2011,11,16,06,03,2.80
2011,11,16,06,04,2.80
2011,11,16,06,05,2.80
2011,11,16,06,06,2.80
2011,11,16,06,07,2.90
2011,11,16,06,08,2.90
2011,11,16,06,09,2.90
2011,11,16,06,10,2.90
2011,11,16,06,11,3.00
2011,11,16,06,12,3.00
2011,11,16,06,13,3.00
2011,11,16,06,14,3.00
2011,11,16,06,15,3.00
2011,11,16,06,16,3.00
2011,11,16,06,17,3.00
2011,11,16,06,18,3.00
2011,11,16,06,19,3.00
2011,11,16,06,20,3.00
2011,11,16,06,21,3.00
2011,11,16,06,22,3.00
2011,11,16,06,23,3.00
2011,11,16,06,24,3.00
2011,11,16,06,25,3.00
2011,11,16,06,26,3.00
2011,11,16,06,27,2.90
2011,11,16,06,28,2.90
2011,11,16,06,29,2.90
2011,11,16,06,30,2.90
2011,11,16,06,31,2.90
2011,11,16,06,32,2.90
2011,11,16,06,33,2.90
2011,11,16,06,34,2.90
2011,11,16,06,35,2.90
2011,11,16,06,36,2.90
2011,11,16,06,37,2.90
2011,11,16,06,38,2.90
2011,11,16,06,39,2.90
2011,11,16,06,40,2.90
2011,11,16,06,41,2.90
2011,11,16,06,42,2.90
2011,11,16,06,43,2.80
2011,11,16,06,44,2.80
2011,11,16,06,45,2.80
2011,11,16,06,46,2.80
2011,11,16,06,47,2.80
2011,11,16,06,48,2.80
2011,11,16,06,49,2.80
2011,11,16,06,50,2.80
2011,11,16,06,51,2.80
2011,11,16,06,52,2.80
2011,11,16,06,53,2.80
2011,11,16,06,54,2.90
2011,11,16,06,55,2.90
2011,11,16,06,56,2.90
2011,11,16,06,57,2.90
2011,11,16,06,58,2.90
2011,11,16,06,59,2.90
2011,11,16,07,00,2.90
2011,11,16,07,01,2.90
2011,11,16,07,02,3.00
2011,11,16,07,03,3.00
2011,11,16,07,04,3.00
2011,11,16,07,05,3.00
2011,11,16,07,06,3.00
2011,11,16,07,07,3.00
2011,11,16,07,08,3.00
2011,11,16,07,09,3.00
2011,11,16,07,10,3.00
2011,11,16,07,11,3.10
2011,11,16,07,12,3.10
2011,11,16,07,13,3.10
2011,11,16,07,14,3.10
2011,11,16,07,15,3.10
2011,11,16,07,16,3.10
2011,11,16,07,17,3.20
2011,11,16,07,18,3.20
2011,11,16,07,19,3.20
2011,11,16,07,20,3.20
2011,11,16,07,21,3.20
2011,11,16,07,22,3.20
2011,11,16,07,23,3.20
2011,11,16,07,24,3.20
2011,11,16,07,25,3.20
2011,11,16,07,26,3.20
2011,11,16,07,27,3.30
2011,11,16,07,28,3.30
2011,11,16,07,29,3.30
2011,11,16,07,30,3.30
2011,11,16,07,31,3.30
2011,11,16,07,32,3.30
2011,11,16,07,33,3.30
2011,11,16,07,34,3.30
2011,11,16,07,35,3.30
2011,11,16,07,36,3.30
2011,11,16,07,37,3.30
2011,11,16,07,38,3.30
2011,11,16,07,39,3.30
2011,11,16,07,40,3.30
2011,11,16,07,41,3.30
2011,11,16,07,42,3.30
2011,11,16,07,43,3.30
2011,11,16,07,44,3.20
2011,11,16,07,45,3.30
2011,11,16,07,46,3.20
2011,11,16,07,47,3.20
2011,11,16,07,48,3.20
2011,11,16,07,49,3.20
2011,11,16,07,50,3.20
2011,11,16,07,51,3.20
2011,11,16,07,52,3.20
2011,11,16,07,53,3.20
2011,11,16,07,54,3.20
2011,11,16,07,55,3.20
2011,11,16,07,56,3.20
2011,11,16,07,57,3.20
2011,11,16,07,58,3.20
2011,11,16,07,59,3.20
2011,11,16,08,00,3.20
2011,11,16,08,01,3.20
2011,11,16,08,02,3.20
2011,11,16,08,03,3.20
2011,11,16,08,04,3.30
2011,11,16,08,05,3.30
2011,11,16,08,06,3.30
2011,11,16,08,07,3.30
2011,11,16,08,08,3.30
2011,11,16,08,09,3.30
2011,11,16,08,10,3.30
2011,11,16,08,11,3.30
2011,11,16,08,12,3.30
2011,11,16,08,13,3.30
2011,11,16,08,14,3.30
2011,11,16,08,15,3.30
2011,11,16,08,16,3.30
2011,11,16,08,17,3.30
2011,11,16,08,18,3.30
2011,11,16,08,19,3.30
2011,11,16,08,20,3.30
2011,11,16,08,21,3.30
2011,11,16,08,22,3.30
2011,11,16,08,23,3.30
2011,11,16,08,24,3.30
2011,11,16,08,25,3.30
2011,11,16,08,26,3.30
2011,11,16,08,27,3.30
2011,11,16,08,28,3.30
2011,11,16,08,29,3.30
2011,11,16,08,30,3.30
2011,11,16,08,31,3.30
2011,11,16,08,32,3.30
2011,11,16,08,33,3.30
2011,11,16,08,34,3.30
2011,11,16,08,35,3.30
2011,11,16,08,36,3.30
2011,11,16,08,37,3.30
2011,11,16,08,38,3.30
2011,11,16,08,39,3.30
2011,11,16,08,40,3.30
2011,11,16,08,41,3.30
2011,11,16,08,42,3.30
2011,11,16,08,43,3.30
2011,11,16,08,44,3.30
2011,11,16,08,45,3.30
2011,11,16,08,46,3.30
2011,11,16,08,47,3.30
2011,11,16,08,48,3.30
2011,11,16,08,49,3.30
2011,11,16,08,50,3.30
2011,11,16,08,51,3.30
2011,11,16,08,52,3.30
2011,11,16,08,53,3.30
2011,11,16,08,54,3.30
2011,11,16,08,55,3.30
2011,11,16,08,56,3.30
2011,11,16,08,57,3.40
2011,11,16,08,58,3.40
2011,11,16,08,59,3.40
2011,11,16,09,00,3.40
2011,11,16,09,01,3.40
2011,11,16,09,02,3.40
2011,11,16,09,03,3.40
2011,11,16,09,04,3.40
2011,11,16,09,05,3.40
2011,11,16,09,06,3.40
2011,11,16,09,07,3.50
2011,11,16,09,08,3.50
2011,11,16,09,09,3.50
2011,11,16,09,10,3.50
2011,11,16,09,11,3.50
2011,11,16,09,12,3.60
2011,11,16,09,13,3.60
2011,11,16,09,14,3.60
2011,11,16,09,15,3.60
2011,11,16,09,16,3.60
2011,11,16,09,17,3.70
2011,11,16,09,18,3.70
2011,11,16,09,19,3.70
2011,11,16,09,20,3.70
2011,11,16,09,21,3.70
2011,11,16,09,22,3.70
2011,11,16,09,23,3.70
2011,11,16,09,24,3.70
2011,11,16,09,25,3.70
2011,11,16,09,26,3.70
2011,11,16,09,27,3.80
2011,11,16,09,28,3.80
2011,11,16,09,29,3.80
2011,11,16,09,30,3.80
2011,11,16,09,31,3.80
2011,11,16,09,32,3.80
2011,11,16,09,33,3.80
2011,11,16,09,34,3.80
2011,11,16,09,35,3.80
2011,11,16,09,36,3.80
2011,11,16,09,37,3.80
2011,11,16,09,38,3.90
2011,11,16,09,39,3.90
2011,11,16,09,40,3.90
2011,11,16,09,41,3.90
2011,11,16,09,42,3.90
2011,11,16,09,43,3.90
2011,11,16,09,44,3.90
2011,11,16,09,45,3.90
2011,11,16,09,46,3.90
2011,11,16,09,47,3.90
2011,11,16,09,48,3.90
2011,11,16,09,49,4.00
2011,11,16,09,50,3.90
2011,11,16,09,51,4.00
2011,11,16,09,52,4.00
2011,11,16,09,53,4.00
2011,11,16,09,54,4.00
2011,11,16,09,55,4.00
2011,11,16,09,56,4.10
2011,11,16,09,57,4.10
2011,11,16,09,58,4.10
2011,11,16,09,59,4.10
2011,11,16,10,00,4.20
2011,11,16,10,01,4.20
2011,11,16,10,02,4.20
2011,11,16,10,03,4.20
2011,11,16,10,04,4.20
2011,11,16,10,05,4.20
2011,11,16,10,06,4.20
2011,11,16,10,07,4.20
2011,11,16,10,08,4.20
2011,11,16,10,09,4.20
2011,11,16,10,10,4.20
2011,11,16,10,11,4.20
2011,11,16,10,12,4.20
2011,11,16,10,13,4.20
2011,11,16,10,14,4.20
2011,11,16,10,15,4.20
2011,11,16,10,16,4.30
2011,11,16,10,17,4.30
2011,11,16,10,18,4.30
2011,11,16,10,19,4.30
2011,11,16,10,20,4.30
2011,11,16,10,21,4.30
2011,11,16,10,22,4.30
2011,11,16,10,23,4.30
2011,11,16,10,24,4.30
2011,11,16,10,25,4.40
2011,11,16,10,26,4.40
2011,11,16,10,27,4.40
2011,11,16,10,28,4.40
2011,11,16,10,29,4.50
2011,11,16,10,30,4.50
2011,11,16,10,31,4.50
2011,11,16,10,32,4.50
2011,11,16,10,33,4.50
2011,11,16,10,34,4.50
2011,11,16,10,35,4.50
2011,11,16,10,36,4.60
2011,11,16,10,37,4.60
2011,11,16,10,38,4.60
2011,11,16,10,39,4.60
2011,11,16,10,40,4.60
2011,11,16,10,41,4.60
2011,11,16,10,42,4.60
2011,11,16,10,43,4.60
2011,11,16,10,44,4.60
2011,11,16,10,45,4.70
2011,11,16,10,46,4.70
2011,11,16,10,47,4.70
2011,11,16,10,48,4.70
2011,11,16,10,49,4.70
2011,11,16,10,50,4.70
2011,11,16,10,51,4.70
2011,11,16,10,52,4.70
2011,11,16,10,53,4.80
2011,11,16,10,54,4.80
2011,11,16,10,55,4.80
2011,11,16,10,56,4.80
2011,11,16,10,57,4.80
2011,11,16,10,58,4.90
2011,11,16,10,59,4.90
2011,11,16,11,00,4.90
2011,11,16,11,01,5.00
2011,11,16,11,02,5.10
2011,11,16,11,03,5.20
2011,11,16,11,04,5.30
2011,11,16,11,05,5.30
2011,11,16,11,06,5.40
2011,11,16,11,07,5.50
2011,11,16,11,08,5.60
2011,11,16,11,09,5.70
2011,11,16,11,10,5.70
2011,11,16,11,11,5.80
2011,11,16,11,12,5.90
2011,11,16,11,13,5.90
2011,11,16,11,14,5.90
2011,11,16,11,15,6.00
2011,11,16,11,16,6.00
2011,11,16,11,17,6.00
2011,11,16,11,18,6.00
2011,11,16,11,19,6.00
2011,11,16,11,20,6.00
2011,11,16,11,21,6.00
2011,11,16,11,22,6.00
2011,11,16,11,23,6.00
2011,11,16,11,24,5.90
2011,11,16,11,25,5.90
2011,11,16,11,26,5.90
2011,11,16,11,27,5.90
2011,11,16,11,28,5.80
2011,11,16,11,29,5.80
2011,11,16,11,30,5.80
2011,11,16,11,31,5.70
2011,11,16,11,32,5.70
2011,11,16,11,33,5.70
2011,11,16,11,34,5.60
2011,11,16,11,35,5.60
2011,11,16,11,36,5.60
2011,11,16,11,37,5.50
2011,11,16,11,38,5.50
2011,11,16,11,39,5.40
2011,11,16,11,40,5.40
2011,11,16,11,41,5.40
2011,11,16,11,42,5.40
2011,11,16,11,43,5.30
2011,11,16,11,44,5.30
2011,11,16,11,45,5.30
2011,11,16,11,46,5.30
2011,11,16,11,47,5.30
2011,11,16,11,48,5.30
2011,11,16,11,49,5.30
2011,11,16,11,50,5.30
2011,11,16,11,51,5.30
2011,11,16,11,52,5.30
2011,11,16,11,53,5.30
2011,11,16,11,54,5.30
2011,11,16,11,55,5.30
2011,11,16,11,56,5.30
2011,11,16,11,57,5.30
2011,11,16,11,58,5.30
2011,11,16,11,59,5.30
2011,11,16,12,00,5.30
2011,11,16,12,01,5.30
2011,11,16,12,02,5.30
2011,11,16,12,03,5.30
2011,11,16,12,04,5.30
2011,11,16,12,05,5.30
2011,11,16,12,06,5.30
2011,11,16,12,07,5.30
2011,11,16,12,08,5.30
2011,11,16,12,09,5.30
2011,11,16,12,10,5.30
2011,11,16,12,11,5.30
2011,11,16,12,12,5.30
2011,11,16,12,13,5.30
2011,11,16,12,14,5.30
2011,11,16,12,15,5.30
2011,11,16,12,16,5.30
2011,11,16,12,17,5.30
2011,11,16,12,18,5.40
2011,11,16,12,19,5.40
2011,11,16,12,20,5.40
2011,11,16,12,21,5.40
2011,11,16,12,22,5.40
2011,11,16,12,23,5.40
2011,11,16,12,24,5.40
2011,11,16,12,25,5.40
2011,11,16,12,26,5.40
2011,11,16,12,27,5.40
2011,11,16,12,28,5.40
2011,11,16,12,29,5.40
2011,11,16,12,30,5.40
2011,11,16,12,31,5.40
2011,11,16,12,32,5.50
2011,11,16,12,33,5.50
2011,11,16,12,34,5.50
2011,11,16,12,35,5.50
2011,11,16,12,36,5.50
2011,11,16,12,37,5.50
2011,11,16,12,38,5.50
2011,11,16,12,39,5.50
2011,11,16,12,40,5.60
2011,11,16,12,41,5.60
2011,11,16,12,42,5.60
2011,11,16,12,43,5.60
2011,11,16,12,44,5.60
2011,11,16,12,45,5.60
2011,11,16,12,46,5.70
2011,11,16,12,47,5.70
2011,11,16,12,48,5.70
2011,11,16,12,49,5.70
2011,11,16,12,50,5.70
2011,11,16,12,51,5.70
2011,11,16,12,52,5.70
2011,11,16,12,53,5.70
2011,11,16,12,54,5.80
2011,11,16,12,55,5.80
2011,11,16,12,56,5.80
2011,11,16,12,57,5.80
2011,11,16,12,58,5.80
2011,11,16,12,59,5.80
2011,11,16,13,00,5.80
2011,11,16,13,01,5.80
2011,11,16,13,02,5.80
2011,11,16,13,03,5.80
2011,11,16,13,04,5.90
2011,11,16,13,05,5.90
2011,11,16,13,06,5.90
2011,11,16,13,07,5.90
2011,11,16,13,08,5.90
2011,11,16,13,09,5.90
2011,11,16,13,10,5.90
2011,11,16,13,11,5.90
2011,11,16,13,12,5.90
2011,11,16,13,13,5.90
2011,11,16,13,14,5.90
2011,11,16,13,15,5.90
2011,11,16,13,16,5.90
2011,11,16,13,17,6.00
2011,11,16,13,18,6.00
2011,11,16,13,19,6.00
2011,11,16,13,20,6.00
2011,11,16,13,21,6.00
2011,11,16,13,22,6.00
2011,11,16,13,23,6.10
2011,11,16,13,24,6.10
2011,11,16,13,25,6.10
2011,11,16,13,26,6.10
2011,11,16,13,27,6.10
2011,11,16,13,28,6.20
2011,11,16,13,29,6.20
2011,11,16,13,30,6.20
2011,11,16,13,31,6.20
2011,11,16,13,32,6.20
2011,11,16,13,33,6.30
2011,11,16,13,34,6.30
2011,11,16,13,35,6.30
2011,11,16,13,36,6.30
2011,11,16,13,37,6.30
2011,11,16,13,38,6.40
2011,11,16,13,39,6.40
2011,11,16,13,40,6.40
2011,11,16,13,41,6.40
2011,11,16,13,42,6.40
2011,11,16,13,43,6.50
2011,11,16,13,44,6.50
2011,11,16,13,45,6.50
2011,11,16,13,46,6.50
2011,11,16,13,47,6.60
2011,11,16,13,48,6.60
2011,11,16,13,49,6.60
2011,11,16,13,50,6.60
2011,11,16,13,51,6.60
2011,11,16,13,52,6.60
2011,11,16,13,53,6.60
2011,11,16,13,54,6.60
2011,11,16,13,55,6.60
2011,11,16,13,56,6.60
2011,11,16,13,57,6.60
2011,11,16,13,58,6.60
2011,11,16,13,59,6.60
2011,11,16,14,00,6.60
2011,11,16,14,01,6.60
2011,11,16,14,02,6.60
2011,11,16,14,03,6.60
2011,11,16,14,04,6.60
2011,11,16,14,05,6.60
2011,11,16,14,06,6.60
2011,11,16,14,07,6.60
2011,11,16,14,08,6.50
2011,11,16,14,09,6.50
2011,11,16,14,10,6.50
2011,11,16,14,11,6.50
2011,11,16,14,12,6.50
2011,11,16,14,13,6.50
2011,11,16,14,14,6.50
2011,11,16,14,15,6.50
2011,11,16,14,16,6.50
2011,11,16,14,17,6.60
2011,11,16,14,18,6.60
2011,11,16,14,19,6.60
2011,11,16,14,20,6.50
2011,11,16,14,21,6.50
2011,11,16,14,22,6.60
2011,11,16,14,23,6.50
2011,11,16,14,24,6.60
2011,11,16,14,25,6.60
2011,11,16,14,26,6.60
2011,11,16,14,27,6.60
2011,11,16,14,28,6.60
2011,11,16,14,29,6.60
2011,11,16,14,30,6.60
2011,11,16,14,31,6.60
2011,11,16,14,32,6.60
2011,11,16,14,33,6.60
2011,11,16,14,34,6.60
2011,11,16,14,35,6.60
2011,11,16,14,36,6.60
2011,11,16,14,37,6.60
2011,11,16,14,38,6.60
2011,11,16,14,39,6.60
2011,11,16,14,40,6.60
2011,11,16,14,41,6.60
2011,11,16,14,42,6.60
2011,11,16,14,43,6.70
2011,11,16,14,44,6.70
2011,11,16,14,45,6.70
2011,11,16,14,46,6.60
2011,11,16,14,47,6.60
2011,11,16,14,48,6.60
2011,11,16,14,49,6.70
2011,11,16,14,50,6.70
2011,11,16,14,51,6.70
2011,11,16,14,52,6.70
2011,11,16,14,53,6.70
2011,11,16,14,54,6.70
2011,11,16,14,55,6.70
2011,11,16,14,56,6.70
2011,11,16,14,57,6.70
2011,11,16,14,58,6.70
2011,11,16,14,59,6.70
2011,11,16,15,00,6.70
2011,11,16,15,01,6.70
2011,11,16,15,02,6.70
2011,11,16,15,03,6.70
2011,11,16,15,04,6.70
2011,11,16,15,05,6.70
2011,11,16,15,06,6.70
2011,11,16,15,07,6.70
2011,11,16,15,08,6.80
2011,11,16,15,09,6.80
2011,11,16,15,10,6.80
2011,11,16,15,11,6.80
2011,11,16,15,12,6.80
2011,11,16,15,13,6.80
2011,11,16,15,14,6.80
2011,11,16,15,15,6.80
2011,11,16,15,16,6.80
2011,11,16,15,17,6.80
2011,11,16,15,18,6.80
2011,11,16,15,19,6.80
2011,11,16,15,20,6.80
2011,11,16,15,21,6.80
2011,11,16,15,22,6.80
2011,11,16,15,23,6.80
2011,11,16,15,24,6.80
2011,11,16,15,25,6.80
2011,11,16,15,26,6.80
2011,11,16,15,27,6.80
2011,11,16,15,28,6.80
2011,11,16,15,29,6.80
2011,11,16,15,30,6.80
2011,11,16,15,31,6.80
2011,11,16,15,32,6.80
2011,11,16,15,33,6.70
2011,11,16,15,34,6.70
2011,11,16,15,35,6.70
2011,11,16,15,36,6.70
2011,11,16,15,37,6.70
2011,11,16,15,38,6.70
2011,11,16,15,39,6.70
2011,11,16,15,40,6.70
2011,11,16,15,41,6.70
2011,11,16,15,42,6.70
2011,11,16,15,43,6.70
2011,11,16,15,44,6.70
2011,11,16,15,45,6.70
2011,11,16,15,46,6.70
2011,11,16,15,47,6.70
2011,11,16,15,48,6.70
2011,11,16,15,49,6.70
2011,11,16,15,50,6.70
2011,11,16,15,51,6.60
2011,11,16,15,52,6.60
2011,11,16,15,53,6.60
2011,11,16,15,54,6.60
2011,11,16,15,55,6.60
2011,11,16,15,56,6.60
2011,11,16,15,57,6.60
2011,11,16,15,58,6.60
2011,11,16,15,59,6.60
2011,11,16,16,00,6.60
2011,11,16,16,01,6.60
2011,11,16,16,02,6.60
2011,11,16,16,03,6.50
2011,11,16,16,04,6.50
2011,11,16,16,05,6.50
2011,11,16,16,06,6.40
2011,11,16,16,07,6.40
2011,11,16,16,08,6.40
2011,11,16,16,09,6.40
2011,11,16,16,10,6.40
2011,11,16,16,11,6.40
2011,11,16,16,12,6.30
2011,11,16,16,13,6.30
2011,11,16,16,14,6.30
2011,11,16,16,15,6.30
2011,11,16,16,16,6.30
2011,11,16,16,17,6.30
2011,11,16,16,18,6.30
2011,11,16,16,19,6.30
2011,11,16,16,20,6.30
2011,11,16,16,21,6.30
2011,11,16,16,22,6.30
2011,11,16,16,23,6.30
2011,11,16,16,24,6.30
2011,11,16,16,25,6.30
2011,11,16,16,26,6.30
2011,11,16,16,27,6.30
2011,11,16,16,28,6.30
2011,11,16,16,29,6.30
2011,11,16,16,30,6.20
2011,11,16,16,31,6.20
2011,11,16,16,32,6.20
2011,11,16,16,33,6.20
2011,11,16,16,34,6.20
2011,11,16,16,35,6.20
2011,11,16,16,36,6.20
2011,11,16,16,37,6.20
2011,11,16,16,38,6.20
2011,11,16,16,39,6.20
2011,11,16,16,40,6.20
2011,11,16,16,41,6.20
2011,11,16,16,42,6.20
2011,11,16,16,43,6.20
2011,11,16,16,44,6.20
2011,11,16,16,45,6.20
2011,11,16,16,46,6.20
2011,11,16,16,47,6.20
2011,11,16,16,48,6.20
2011,11,16,16,49,6.20
2011,11,16,16,50,6.20
2011,11,16,16,51,6.20
2011,11,16,16,52,6.20
2011,11,16,16,53,6.20
2011,11,16,16,54,6.20
2011,11,16,16,55,6.20
2011,11,16,16,56,6.20
2011,11,16,16,57,6.20
2011,11,16,16,58,6.20
2011,11,16,16,59,6.20
2011,11,16,17,00,6.20
2011,11,16,17,01,6.10
2011,11,16,17,02,6.10
2011,11,16,17,03,6.10
2011,11,16,17,04,6.10
2011,11,16,17,05,6.10
2011,11,16,17,06,6.10
2011,11,16,17,07,6.10
2011,11,16,17,08,6.10
2011,11,16,17,09,6.10
2011,11,16,17,10,6.10
2011,11,16,17,11,6.10
2011,11,16,17,12,6.10
2011,11,16,17,13,6.10
2011,11,16,17,14,6.10
2011,11,16,17,15,6.10
2011,11,16,17,16,6.10
2011,11,16,17,17,6.10
2011,11,16,17,18,6.10
2011,11,16,17,19,6.10
2011,11,16,17,20,6.10
2011,11,16,17,21,6.10
2011,11,16,17,22,6.10
2011,11,16,17,23,6.00
2011,11,16,17,24,6.00
2011,11,16,17,25,6.00
2011,11,16,17,26,6.00
2011,11,16,17,27,6.00
2011,11,16,17,28,6.00
2011,11,16,17,29,6.00
2011,11,16,17,30,6.00
2011,11,16,17,31,6.00
2011,11,16,17,32,6.00
2011,11,16,17,33,6.00
2011,11,16,17,34,6.00
2011,11,16,17,35,6.00
2011,11,16,17,36,6.00
2011,11,16,17,37,6.00
2011,11,16,17,38,6.00
2011,11,16,17,39,6.00
2011,11,16,17,40,6.00
2011,11,16,17,41,6.00
2011,11,16,17,42,5.90
2011,11,16,17,43,5.90
2011,11,16,17,44,5.90
2011,11,16,17,45,5.90
2011,11,16,17,46,5.90
2011,11,16,17,47,5.90
2011,11,16,17,48,5.90
2011,11,16,17,49,5.90
2011,11,16,17,50,5.90
2011,11,16,17,51,5.90
2011,11,16,17,52,5.90
2011,11,16,17,53,5.90
2011,11,16,17,54,5.90
2011,11,16,17,55,5.90
2011,11,16,17,56,5.90
2011,11,16,17,57,5.90
2011,11,16,17,58,5.90
2011,11,16,17,59,5.90
2011,11,16,18,00,5.90
2011,11,16,18,01,5.90
2011,11,16,18,02,5.90
2011,11,16,18,03,5.90
2011,11,16,18,04,5.90
2011,11,16,18,05,5.90
2011,11,16,18,06,5.90
2011,11,16,18,07,5.90
2011,11,16,18,08,5.90
2011,11,16,18,09,5.90